Meteo Giornale » Osservazioni meteo Svezia » Goteborg-Save
ore: 17:50 - Osservazioni Meteo Goteborg-Save
Lat. 57° 47' N Lon. 11° 53' E Alt. 20 metri s.l.m.
17 °C
Poco Nuvoloso
Temp. 24 Ore
13 °C
19 °C
Ovest/Sud-Ovest
11.1 Km/h
Dew point 13 °C
Umidità 77 %
Visibilità 10 Km
Il sole sorge alle ore 06:13
Il sole tramonta alle ore 20:11
| Data e Ora | Cielo e Fenomeni | T °C | DP °C | Um. % | Pres. hPa | Vis. km | Vento km/h | |
|---|---|---|---|---|---|---|---|---|
| Oggi h: 17:50 | Poco Nuvoloso | 17 | 13 | 77 | 1010 | 10 | O/SO 11.1 | |
| Oggi h: 17:20 | Molto Nuvoloso | 18 | 13 | 72 | 1010 | 10 | O/SO 16.7 | |
| Oggi h: 16:50 | Nuvoloso | 19 | 13 | 68 | 1010 | 10 | O/SO 16.7 | |
| Oggi h: 16:20 | Molto Nuvoloso | 19 | 12 | 63 | 1010 | 10 | O/SO 16.7 | |
| Oggi h: 15:50 | Molto Nuvoloso | 19 | 12 | 63 | 1010 | 10 | O/SO 16.7 | |
| Oggi h: 15:20 | Nuvoloso | 18 | 13 | 72 | 1010 | 10 | O/SO 14.8 | |
| Oggi h: 14:50 | Nuvoloso | 19 | 13 | 68 | 1010 | 10 | SO 9.3 | |
| Oggi h: 14:20 | Nuvoloso | 19 | 13 | 68 | 1010 | 10 | O 16.7 | |
| Oggi h: 13:50 | Nuvoloso | 19 | 13 | 68 | 1010 | 10 | O/SO 13 | |
| Oggi h: 13:20 | Nuvoloso | 19 | 13 | 68 | 1010 | 10 | O/SO 11.1 | |
| Oggi h: 12:50 | Molto Nuvoloso | 18 | 13 | 72 | 1010 | 10 | O/SO 13 | |
| Oggi h: 12:20 | Coperto | 18 | 13 | 72 | 1009 | 10 | O/SO 13 | |
| Oggi h: 11:50 | Molto Nuvoloso | 18 | 13 | 72 | 1009 | 10 | O 13 | |
| Oggi h: 11:20 | Molto Nuvoloso | 18 | 14 | 77 | 1009 | 10 | O/SO 9.3 | |
| Oggi h: 10:50 | Molto Nuvoloso | 18 | 13 | 72 | 1009 | 10 | O 11.1 | |
| Oggi h: 10:20 | Molto Nuvoloso | 18 | 13 | 72 | 1009 | 10 | O/SO 11.1 | |
| Oggi h: 09:50 | Molto Nuvoloso | 17 | 15 | 88 | 1008 | 10 | N 5.5 | |
| Oggi h: 09:20 | Coperto | 16 | 15 | 93 | 1008 | 7 | N 0 | |
| Oggi h: 08:50 | Coperto | 15 | 14 | 93 | 1008 | 0.55 | N 0 | |
| Oggi h: 08:20 | Nebbia | 15 | 14 | 93 | 1008 | 0.45 | N 0 | |
| Oggi h: 07:50 | Foschia | 14 | 14 | 100 | 1008 | 0.75 | N 0 | |
| Oggi h: 07:20 | Coperto | 14 | 13 | 93 | 1008 | 5 | N 0 | |
| Oggi h: 06:50 | Coperto | 14 | 13 | 93 | 1008 | 4 | N 0 | |
| Oggi h: 06:20 | Nebbia | 13 | 13 | 100 | 1007 | 0.5 | N 0 | |
| Oggi h: 05:50 | Nebbia | 13 | 13 | 100 | 1007 | 0.2 | N 0 | |
| Oggi h: 05:20 | Nebbia | 14 | 13 | 93 | 1007 | 0.3 | N 0 | |
| Oggi h: 04:50 | Nebbia | 13 | 13 | 100 | 1007 | 0.25 | N 0 | |
| Oggi h: 04:20 | Banco di nebbia | 14 | 13 | 93 | 1007 | 1 | N 0 | |
| Oggi h: 03:50 | Nebbia | 14 | 13 | 93 | 1007 | 0.5 | N 0 | |
| Oggi h: 03:20 | Foschia | 14 | 13 | 93 | 1007 | 1 | N 0 | |
| Oggi h: 02:50 | Foschia | 15 | 14 | 93 | 1006 | 2 | N 0 | |
| Oggi h: 02:20 | Coperto | 15 | 14 | 93 | 1006 | 7 | N 0 | |
| Oggi h: 01:50 | Molto Nuvoloso | 15 | 14 | 93 | 1006 | 10 | N 0 | |
| Oggi h: 01:20 | Coperto | 15 | 14 | 93 | 1006 | 10 | N 1.8 | |
| Oggi h: 00:50 | Coperto | 15 | 14 | 93 | 1006 | 10 | N 5.5 | |
| Oggi h: 00:20 | Coperto | 14 | 14 | 100 | 1006 | 7 | N 0 | |
| Ieri h: 23:50 | Foschia | 15 | 14 | 93 | 1006 | 1 | N 0 | |
| Ieri h: 23:20 | Pioviggine | 15 | 14 | 93 | 1006 | 10 | N 0 | |
| Ieri h: 22:50 | Molto Nuvoloso | 15 | 14 | 93 | 1006 | 10 | N 1.8 | |
| Ieri h: 22:20 | Molto Nuvoloso | 15 | 14 | 93 | 1006 | 9 | N 0 | |
| Ieri h: 21:50 | Coperto | 15 | 14 | 93 | 1006 | 10 | N 0 | |
| Ieri h: 21:20 | Coperto | 15 | 14 | 93 | 1006 | 10 | N 3.7 | |
| Ieri h: 20:50 | Molto Nuvoloso | 15 | 14 | 93 | 1006 | 9 | N 5.5 | |
| Ieri h: 20:20 | Pioviggine | 15 | 14 | 93 | 1006 | 10 | N 3.7 | |
| Ieri h: 19:50 | Molto Nuvoloso | 16 | 14 | 87 | 1005 | 10 | N 0 | |
| Ieri h: 19:20 | Pioviggine | 16 | 15 | 93 | 1005 | 10 | N 5.5 | |
| Ieri h: 18:50 | Pioggia | 16 | 15 | 93 | 1005 | 10 | SE 7.4 | |



